AirNav   Bose A20 Aviation Headset
 
 1040 users online  

6M8 Marked Tree Municipal Airport
Marked Tree, Arkansas, USA

GOING TO MARKED TREE?


FAA INFORMATION EFFECTIVE 11 OCTOBER 2018

Location

FAA Identifier: 6M8
Lat/Long: 35-31-59.1250N / 090-24-00.3200W
35-31.985417N / 090-24.005333W
35.5330903 / -90.4000889
(estimated)
Elevation: 219 ft. / 66.8 m (surveyed)
Variation: 02E (1985)
From city: 1 mile E of MARKED TREE, AR
Time zone: UTC -5 (UTC -6 during Standard Time)
Zip code: 72365

Airport Operations

Airport use: Open to the public
Activation date: 03/1970
Control tower: no
ARTCC: MEMPHIS CENTER
FSS: JONESBORO FLIGHT SERVICE STATION
NOTAMs facility: JBR (NOTAM-D service available)
Attendance: IREG
Wind indicator: lighted
Segmented circle: yes
Lights: ACTVT MIRL RY 18/36 - CTAF.
Beacon: white-green (lighted land airport)
Operates sunset to sunrise.

Airport Communications

CTAF/UNICOM: 122.8

Nearby radio navigation aids

VOR radial/distance  VOR name  Freq  Var
GQEr015/11.8GILMORE VOR/DME113.0004E
JBRr156/22.5JONESBORO VOR/DME108.6000W
MEMr326/37.2MEMPHIS VORTAC117.5001E

Airport Services

Parking: tiedowns
Airframe service: NONE
Powerplant service: NONE

Runway Information

Runway 18/36

Dimensions: 3200 x 60 ft. / 975 x 18 m
Surface: asphalt, in fair condition
Weight bearing capacity: 
Single wheel: 8.0
Runway edge lights: medium intensity
RUNWAY 18  RUNWAY 36
Latitude: 35-32.249167N35-31.721667N
Longitude: 090-24.004500W090-24.006167W
Elevation: 219.0 ft.219.0 ft.
Gradient: 0.1%0.1%
Traffic pattern: leftleft
Markings: nonprecision, in good conditionnonprecision, in good condition
Visual slope indicator: 2-light PAPI on left (3.00 degrees glide path)2-light PAPI on left (3.00 degrees glide path)
Touchdown point: yes, no lightsyes, no lights
Obstructions: none15 ft. road, 500 ft. from runway, 20:1 slope to clear

Airport Ownership and Management from official FAA records

Ownership: Publicly-owned
Owner: CITY OF MARKED TREE
1 ELM STREET
MARKED TREE, AR 72365
Phone 870-358-3216
Manager: WAYNE HENDRIX
1 ELM STREET
MARKED TREE, AR 72365
Phone (870) 375-3025

Airport Operational Statistics

Aircraft based on the field: 1
Single engine airplanes: 1
    
Aircraft operations: avg 65/day *
84% local general aviation
15% transient general aviation
<1% military
<1% air taxi
* for 12-month period ending 31 August 2016

Additional Remarks

NUMEROUS AGRICULTURAL ACFT OPNS FM FEB-NOV 500 FT AGL AND BELOW.
FOR CD CTC MEM APCH AT 901-842-8457.

Instrument Procedures

There are no published instrument procedures at 6M8.

Some nearby airports with instrument procedures:

7M4 - Osceola Municipal Airport (21 nm NE)
KJBR - Jonesboro Municipal Airport (22 nm NW)
KMXA - Manila Municipal Airport (25 nm NE)
KAWM - West Memphis Municipal Airport (25 nm S)
M01 - General Dewitt Spain Airport (26 nm SE)
 
Loc | Ops | Rwys | IFR | FBO | Links
Com | Nav | Svcs | Stats | Notes


 
Area around 6M8 (Marked Tree Municipal Airport)
 
Road maps at: MapQuest Bing Google
 
Aerial photo
WARNING: Photo may not be current or correct
Aerial photo of 6M8 (Marked Tree Municipal Airport)
Photo courtesy of the Arkansas Department of Aeronautics
Taken in the Spring of 2007

Do you have a better or more recent aerial photo of Marked Tree Municipal Airport that you would like to share? If so, please send us your photo.

 
Sectional chart

 
Airport distance calculator
Flying to Marked Tree Municipal Airport? Find the distance to fly.

From to 6M8

Sunrise and sunset
Times for 17-Oct-2018
 Local
(UTC-5)
 Zulu
(UTC)
Morning civil twilight06:4511:45
Sunrise07:1112:11
Sunset18:2323:23
Evening civil twilight18:4923:49

Current date and time
Zulu (UTC)  17-Oct-2018 23:41:42
Local (UTC-5)  17-Oct-2018 18:41:42
 
METAR
KJBR 
22nm NW 
172253Z AUTO 02003KT 10SM CLR 18/11 A3034 RMK AO2 SLP274 T01830111
KAWM 
25nm S 
172253Z AUTO 36003KT 10SM CLR 18/11 A3033 RMK AO2 SLP269 T01830106 $
KNQA 
28nm SE 
172250Z 01003KT 10SM CLR 17/10 A3033
KMEM 
35nm SE 
172254Z 35005KT 10SM BKN240 18/09 A3034 RMK AO2 SLP272 T01780094
KHKA 
37nm NE 
172253Z AUTO 02007KT 10SM CLR 18/08 A3035 RMK AO2 SLP278 T01830083 $
KBYH 
37nm NE 
172150Z 01006KT 10SM SCT250 BKN250 20/08 A3034 RMK LAST
KM19 
38nm W 
172256Z AUTO 08003KT 10SM CLR 18/09 A3036 RMK AO2 SLP288 T01780094
KM04 
40nm E 
172315Z AUTO 01004KT 10SM CLR 16/10 A3034 RMK A01
KARG 
43nm NW 
172256Z AUTO 02006KT 10SM CLR 19/09 A3035 RMK AO2 SLP281 T01890089
TAF
KJBR 
22nm NW 
171730Z 1718/1818 03007KT P6SM SCT150 BKN250
NOTAMs
Click for the latest NOTAMs
NOTAMs are issued by the DoD/FAA and will open in a separate window not controlled by AirNav.

 

 
 

Would you like to see your business listed on this page?

 If your business provides an interesting product or service to pilots, flight crews, aircraft, or users of the Marked Tree Municipal Airport, you should consider listing it here.  To start the listing process, click on the button below
 
Add a business
 

Other Pages about Marked Tree Municipal Airport

Update a link
 
Copyright © AirNav, LLC. All rights reserved. Privacy Policy  Contact